Showing default

FENGYUN 3D, 43010

Orbit data source: Space-Track

FENGYUN 3D, 43010 is a payload satellite owned by CNMSC (CN) in SSO that was launched on Tue, 14 Nov 2017 UTC via a CHANG ZHENG 4C launch vehicle from the Taiyaun Space Center, China (TSC). Payload-class satellites include a variety of spacecraft equipped with specific instruments for various scientific and technological missions. These include communications satellites like Starlink; space stations such as the ISS; scientific satellites like the Hubble; Earth observation satellites from companies like Planet Labs, Umbra, and HawkEye 360; GPS; miniature CubeSats for education and research; and military/defense satellites.

Loading next visibility...
Identifier
43010, 2017-072A
Orbit
SSO
Last TLE update
7 hours ago
Origin
Manufacturer
SISE
Mission
Operational Civil Weather
Bus & Motor
FY-3, Unknown motor
Mass
2,450 kg wet, 2,250 kg dry
Launch date (UTC)
2017-11-14 (7 years ago)
Launch vehicle
CHANG ZHENG 4C
Launch site
Taiyaun Space Center, China (TSC)
Object type
Payload
Rocket body
Debris
Shape & HBR
Box + 2 Pan, 10 m
Radar Cross Section
15.104 m², Large (>1 m²)

Expand to show TLE details & history

TLE from 7 hours ago
0 FENGYUN 3D
1 43010U 17072A   25128.95655759  .00000128  00000-0  82319-4 0  9992
2 43010  98.9600  92.3987 0002475 109.0496 251.0947 14.19620908387632
Epoch: 2025-05-08T22:57Z
Definitive object data (Epoch: 2025-05-08T22:57:26.575Z)
Latitude
-0.00011°
Longitude
-118.98162°
Altitude
830.119 km
Speed
7.438 km/s
True Right ascension
06h 09m 35s
True Declination
0° 00' 00"
Sunlit
Object was in daylight at TLE epoch
Visualization TLE readout
Latitude
62.25215°
Longitude
-136.02876°
Altitude
835.997 km
Speed
7.441 km/s
Apparent Right ascension
03h 19m 05s
Apparent Declination
16° 32' 14"
Sunlit
Object is in daylight
Visualization observer readout
Local Sidereal Time
14:10:03
Azimuth
340.556° N
Elevation
-31.299°
Doppler factor
1
Orbital elements
Apogee altitude
825.589 km
Perigee altitude
822.024 km
Semi-major axis
7,201.943 km
Eccentricity
0.0002475
Inclination
98.96°
RAAN
92.3987°
Arg. of periapsis
109.0496°
True anomaly
251.06787°
Mean anomaly
251.0947°
Eccentric anomaly
251.08129°
Mean motion
3.55115 °/min
BSTAR
0.000082319
Orbital period
101.38 mins
Loading maneuver chart data...
Loading SW <> Apogee altitude chart data...
Loading historical data...
Loading historical data...
Loading historical data...
Loading historical data...
Loading historical data...
Loading historical data...
Loading historical data...
Other satellites on launch #72 in the year 2017 (2017-11-14 UTC)

FENGYUN 3D Visibility forecast

Observer location: undefined°, undefined°

Span
Click to sort rows by Start time (UTC) header in descending order
Start Az.
Max El. time (UTC)
Max El. Az.
Max El.
End time (UTC)
End Az.
8 mins2025-05-09 09:42:17.245Z38.626° NE2025-05-09 09:46:17.245Z100.502° ESE29.216°2025-05-09 09:50:17.245Z158.01° S
7 mins2025-05-09 11:23:17.245Z340.338° N2025-05-09 11:26:17.245Z292.043° WNW26.561°2025-05-09 11:30:17.245Z237.418° WSW
8 mins2025-05-09 21:05:17.245Z141.319° SSE2025-05-09 21:08:17.245Z85.547° E39.353°2025-05-09 21:13:17.245Z356.376° N
5 mins2025-05-09 22:47:17.245Z243.322° WSW2025-05-09 22:49:17.245Z270.211° WNW17°2025-05-09 22:52:17.245Z306.219° NW
|